Regional Weather Roundup
Issued by NWS Wakefield, VA

Home | Current Version | Previous Version | Text Only | Print | Product List | Glossary Off
Versions: 1 2 3 4 5 6 7 8 9 10 11 12 13 14 15 16 17 18 19 20 21 22 23 24 25 26 27 28 29 30 31 32 33 34 35 36 37 38 39 40 41 42 43 44 45 46 47 48 49

000
ASUS41 KAKQ 190610
RWRAKQ

REGIONAL WEATHER ROUNDUP
NATIONAL WEATHER SERVICE WAKEFIELD VA
100 AM EST FRI DEC 19 2014

Note: "fair" indicates few or no clouds below 12,000 feet with no
significant weather and/or obstructions to visibility. * = Denotes
station may not report precipitation (e.g., rain,snow,etc.),
thunder or fog.

VAZ042-051-052>054-056-190700-
NORTHERN VIRGINIA

CITY           SKY/WX    TMP DP  RH WIND       PRES   REMARKS
WASH NATIONAL  CLOUDY    38  21  50 NW10      30.13S
DULLES         MOCLDY    32  23  69 W6        30.11F
FORT BELVOIR   CLOUDY    35  23  61 NW7       30.13S
QUANTICO       CLOUDY    36  22  56 N12       30.13F
FREDERICKSBRG* CLOUDY    37  25  63 N6        30.11F
STAFFORD*      CLOUDY    34  22  61 N5        30.15F
WARRENTON      CLOUDY    35  28  78 N7        30.10F
CULPEPER*      CLOUDY    36  25  64 N8        30.11F
MANASSAS*      CLOUDY    34  25  69 N8        30.12F
LEESBURG*      CLOUDY    34  27  75 NW7       30.12S
WINCHESTER     CLOUDY    34  19  55 NW6       30.10F
FRONT ROYAL*   CLOUDY    32  23  69 CALM      30.10S
LURAY*         CLOUDY    34  28  80 CALM      30.09F
$$

VAZ048-049-060>072-079>083-190700-
CENTRAL AND SOUTH CENTRAL VIRGINIA

CITY           SKY/WX    TMP DP  RH WIND       PRES   REMARKS
RICHMOND       CLOUDY    36  24  62 CALM      30.12S
CHESTERFIELD*  CLOUDY    32  16  51 CALM      30.13S
PETERSBURG*    CLEAR     29  27  91 CALM      30.13S
HANOVER        CLOUDY    34  24  67 CALM      30.13F
TAPPAHANNOCK*  CLOUDY    33  24  69 CALM      30.12S
QUINTON*       CLOUDY    32  27  81 W5        30.12F
CHARLOTTSVILLE CLOUDY    34  23  64 CALM      30.10S
GORDONSVILLE*  CLOUDY    33  24  70 CALM      30.10S
ORANGE*        CLOUDY    34  27  75 CALM      30.12S
LOUISA*        CLOUDY    34  27  75 CALM      30.09F
BUMPASS*       CLOUDY    34  23  64 CALM      30.12S
FARMVILLE*     CLOUDY    34  26  71 N3        30.10S
CREWE*         PTCLDY    28  25  87 CALM      30.10F
FORT PICKETT*  PTCLDY    29  24  79 E5        30.10F
CHASE CITY*    PTCLDY    32  29  89 CALM      30.09F
CLARKSVILLE*   CLOUDY    34  32  93 CALM      30.09F
SOUTH HILL*    CLEAR     30  27  89 CALM      30.16S
LAWRENCEVILLE* CLEAR     32  29  90 NE3       30.11S
EMPORIA*       PTCLDY    32  28  86 NW5       30.13S
$$

VAZ088>098-190700-
SOUTHEAST VIRGINIA

CITY           SKY/WX    TMP DP  RH WIND       PRES   REMARKS
NORFOLK        MOCLDY    40  28  62 N7        30.10S
VIRGINIA BEACH CLOUDY    39  32  76 N3        30.10R
NORFOLK NAVAL  CLOUDY    43  29  57 N8        30.12S
WEST POINT*    CLOUDY    34  28  81 CALM      30.14S
SALUDA*        CLOUDY    37  25  63 NW3       30.11S
NEWPORT NEWS   CLEAR     35  27  72 NW5       30.12R
LANGLEY AFB    CLOUDY    37  28  70 N6        30.11S
FORT EUSTIS    CLEAR     36  25  64 N2        30.11R
WILLIAMSBURG*  PTCLDY    34  30  86 CALM      30.13S
HR EXEC AP*    CLOUDY    36  30  80 CALM      30.13S
FRANKLIN*      MOCLDY    36  28  75 CALM      30.12R
WAKEFIELD      CLEAR     32  27  81 CALM      30.13R
$$

VAZ020-022-025-037-045-190700-
WEST CENTRAL AND SOUTHWEST VIRGINIA

CITY           SKY/WX    TMP DP  RH WIND       PRES   REMARKS
STAUNTON*      CLOUDY    33  25  72 CALM      30.10S
WAYNESBORO*    CLOUDY    32  24  72 CALM      30.07S
HOT SPRINGS VA MOCLDY    24  18  77 W13       29.96F WCI  13
LYNCHBURG      CLOUDY    32  27  81 CALM      30.09S
DANVILLE       CLOUDY    37  29  72 W5        30.11R
SOUTH BOSTON*  CLOUDY    31  27  86 CALM      30.10S
MARTINSVILLE   CLOUDY    38  30  73 N3        30.13R
ROANOKE        MOCLDY    38  18  44 NW12      30.12S
BLACKSBURG     CLEAR     32  19  59 NW10G17   30.12S WCI  24
DUBLIN*        CLOUDY    35  23  61 W8        30.11S
MARION*        CLOUDY    37  26  65 W12       30.11S
HILLSVILLE*    CLOUDY    34  25  68 NW12      30.07S
RICHLANDS*     CLOUDY    31  22  69 NW5       30.11S
WISE*          CLOUDY    32  27  80 NW3       30.12F
ABINGDON*      CLOUDY    39  27  61 NW3       30.12F
$$

MDZ021>025-VAZ099-100-190700-
SOUTHERN MARYLAND AND THE DELMARVA PENINSULA

CITY           SKY/WX    TMP DP  RH WIND       PRES   REMARKS
PATUXENT RIVER CLOUDY    36  23  59 NW13      30.10S
BAY BRIDGE APT   N/A     36  25  64 W10       30.10S
LEONARDTOWN    CLOUDY    34  23  64 NW3       30.12S
DOVER          CLOUDY    35  26  68 W9        30.04F
GEORGETOWN     CLOUDY    35  25  66 W3        30.07F
EASTON         PTCLDY    37  28  69 NW8       30.12S
CAMBRIDGE      PTCLDY    37  27  65 NW10      30.09S
SALISBURY      CLOUDY    36  26  67 W5        30.08S
OCEAN CITY     CLOUDY    34  25  69 NW3       30.08S
WALLOPS ISLAND CLOUDY    35  26  69 NW6       30.10R
ACCOMACK*      CLOUDY    36  28  75 CALM      30.10R
$$

NCZ012>017-030>032-190700-
NORTH CENTRAL AND EASTERN NORTH CAROLINA

CITY           SKY/WX    TMP DP  RH WIND       PRES   REMARKS
ROANOKE RAPIDS MOCLDY    32  30  93 CALM      30.11S
RALEIGH        MOCLDY    37  30  75 CALM      30.11S
ELIZABETH CITY CLOUDY    42  35  76 CALM      30.10S
AHOSKIE*       CLEAR     32  31  95 CALM      30.11S
EDENTON*       MOCLDY    35  32  88 CALM      30.10S
CURRITUCK*     CLOUDY    39  35  84 CALM      30.10S
KILL DEVIL HLS CLOUDY    42  36  80 CALM      30.08R
MANTEO         CLOUDY    43  36  78 W5        30.10R
CAPE HATTERAS  MOCLDY    35  34  96 CALM      30.09F
TARBORO*       NOT AVBL
GOLDSBORO      PTCLDY    37  37  98 CALM      30.09F
WASHINGTON     CLEAR     34  32  93 CALM      30.11S
GREENVILLE     CLEAR     32  32 100 CALM      30.12S
NEW BERN       MOCLDY    37  33  85 CALM      30.11S
WILMINGTON     CLEAR     34  33  96 S5        30.10F
$$

VAZ048-190700-
ELSEWHERE

CITY           SKY/WX    TMP DP  RH WIND       PRES   REMARKS
HARRISBURG PA  CLOUDY    34  25  69 NW12      30.06F
BALTIMORE      CLOUDY    34  24  67 W6        30.09S
ANNAPOLIS      CLOUDY    35  23  61 W7        30.10S
ANDREWS AFB    CLOUDY    34  23  64 NW9       30.10S
PHILADELPHIA   CLOUDY    38  25  59 W12       30.04F
HENDERSON NC   CLOUDY    34  30  85 CALM      30.09S
GREENSBORO     CLOUDY    41  27  57 W5        30.09S
ROCKY MOUNT    CLEAR     33  31  92 CALM      30.11S
$$

VAZ100-190700-
MARINE

STATION/POSITION TIME  TEMP    WIND        PRES    WAVE   SWELL
                       AIR SEA DIR/SP/G            HT/PER HT/PER
                 (UTC) (F)     (DEG/KT/KT) (MB)    (FT/S) (FT/S)
CAPE MAY NJ      0600   37 41  310/ 10/ 18 1017.1R
LEWES DE         0600   35 42  270/  9/ 10 1017.8S
15NM E FENWICK I 0600   38 47              1017.3F   3/ 4
OCEAN-CITY-INLET 0600   35 43  300/  6/  8 1017.9S
WACHAPREAGUE VA  0600   37 43   CALM  /  1 1019.2R
THOMAS POINT MD  0600   35 42  290/ 13/ 14 1020.2F
GOOSES REEF MD   0600   36     VRB 14/ 16  1018.5R
COVE POINT MD    0600   36     340/ 13/ 17 1019.1S
SOLOMONS ISLAND  0600      44                N/A
BISHOPS HEAD MD  0600   36 40  320/  8/ 10 1018.6F
PINEY POINT MD   0600          350/ 13/ 15   N/A
POTOMAC MD       0600   38     340/ 10/ 14 1018.7R
CAMBRIDGE MD     0600   37 41  310/ 10/ 15 1018.7F
LEWISETTA VA     0600   37 43  340/  7/ 10 1019.3F
RAPPAHANNOCK LGT 0600          330/ 13/ 15 1019.7S
STINGRAY PT      0600   38     340/ 10/ 12 1020.1F
YORK RVR RNG VA  0600   39     350/  8/ 10 1019.2R
YORKTOWN VA      0600   38 45  340/  7/  8 1019.6R
JAMESTOWN VA     0600   35      10/  2/  4   N/A
DOMINION TERM VA 0600   40      40/  2/  4 1019.4F
KIPTOPEKE VA     0600      50   40/  4/  5   N/A
CHES BAY BRIDGE  0600   41 46  350/  7/  9 1018.8S
CAPE HENRY VA    0600   40     360/  9/ 11 1018.0R
CHESAPEAKE LGHT  0500   41     360/  7/  8 1019.5F
WILLOUBY STN VA  0600   40     350/  6/  7 1019.8F
S CRANEY ISL VA  0600           10/  6/  7 1019.3F
CAPE HENRY BUOY  0600      48                N/A     2/ 4
1ST LANDING BUOY 0600   41      20/  8/ 12 1019.0R
CAPE CHARLES BUO 0600      47                N/A     2/11   2/11
64NM E OF VA BCH 0600   44 55  320/  8/ 12 1018.1F   3/ 5   2/ 5
DUCK PIER NC     0600   44 48  300/  4/  4 1018.1S
44100 DUCK FRF   0600      51                N/A     3/ 5
44056 DUCK FRF   0600      48                N/A     2/ 6
OREGON INLET NC  0600   45 50  250/  5/  6 1018.8S
HATTERAS NC      0600   44 55   CALM  /  1 1019.0F
DIAMOND SHLS NC  0600   47                 1019.5F   3/ 8
CAPE LOOKOUT NC  0500   47      20/  3/  3 1019.4F
$$



USA.gov is the U.S. government's official web portal to all federal, state and local government web resources and services.